Date String (YYYY-MM-DD hh:mm:ss) UTC,Instrument flags,Ambient pressure (hPa),Sample flow (lpm),Bypass flow (lpm),Sample temperature (°C),Ambient temperature (°C),ASC tube jacket temperature (°C),LED temperature (°C),Box temperature (°C),Sample RH (%),Span deviation,Mass concentration (μg/m³),Mass concentration (μg/m³),Mass concentration (μg/m³)
DateTimeUTC,F1_M11,P_M11,Q1_M11,Q2_M11,T1_M11,T2_M11,T3_M11,T4_M11,T5_M11,U1_M11,ZSPAN_M11,X0_M11,X2_M11,X1_M11
2022-07-08 07:00:00,,0833.2,5.01,0.00,29.8,28.6,00.0,38.5,31.7,30.4,0000.0,0008.31,0003.33,0002.55
2022-07-08 07:01:00,,0833.2,5.00,0.00,29.8,28.6,00.0,38.6,31.7,30.2,0000.0,0008.16,0003.30,0002.51
2022-07-08 07:02:00,,0833.2,5.00,0.00,29.8,28.7,00.0,38.6,31.8,30.0,0000.0,0008.17,0003.30,0002.49
2022-07-08 07:03:00,,0833.2,5.00,0.00,29.8,28.7,00.0,38.6,31.8,29.8,0000.0,0007.90,0003.32,0002.47
2022-07-08 07:04:00,,0833.3,5.01,0.00,29.9,28.8,00.0,38.6,31.8,29.7,0000.0,0007.27,0003.31,0002.44
2022-07-08 07:05:00,,0833.3,5.01,0.00,29.9,28.8,00.0,38.6,31.8,29.6,0000.0,0007.03,0003.26,0002.39
2022-07-08 07:06:00,,0833.3,5.00,0.00,29.9,28.8,00.0,38.6,31.9,29.6,0000.0,0006.71,0003.21,0002.38
2022-07-08 07:07:00,,0833.3,5.00,0.00,29.9,28.8,00.0,38.7,31.9,29.7,0000.0,0006.04,0003.17,0002.35
2022-07-08 07:08:00,,0833.4,5.00,0.00,29.9,28.9,00.0,38.7,31.9,29.5,0000.0,0005.98,0003.15,0002.35
2022-07-08 07:09:00,,0833.4,5.00,0.00,30.0,28.9,00.0,38.7,31.9,29.5,0000.0,0005.98,0003.13,0002.31
2022-07-08 07:10:00,,0833.5,5.00,0.00,30.0,28.9,00.0,38.7,31.9,29.5,0000.0,0005.89,0003.11,0002.28
2022-07-08 07:11:00,,0833.5,5.01,0.00,30.0,28.9,00.0,38.7,32.0,29.4,0000.0,0006.01,0003.13,0002.25
2022-07-08 07:12:00,,0833.4,5.00,0.00,30.0,28.9,00.0,38.7,32.0,29.4,0000.0,0006.22,0003.15,0002.25
2022-07-08 07:13:00,,0833.4,5.00,0.00,30.0,28.2,00.0,38.7,31.9,29.5,0000.0,0006.81,0003.17,0002.28
2022-07-08 07:14:00,,0833.4,5.01,0.00,30.0,27.6,00.0,38.6,31.8,29.5,0000.0,0006.65,0003.13,0002.30
2022-07-08 07:15:00,,0833.4,5.01,0.00,29.9,27.4,00.0,38.6,31.6,29.6,0000.0,0006.69,0003.14,0002.33
2022-07-08 07:16:00,,0833.4,5.00,0.00,29.8,27.4,00.0,38.6,31.5,30.0,0000.0,0006.91,0003.16,0002.36
2022-07-08 07:17:00,,0833.4,5.00,0.00,29.8,27.5,00.0,38.6,31.5,30.0,0000.0,0006.74,0003.18,0002.37
2022-07-08 07:18:00,,0833.4,5.00,0.00,29.7,27.6,00.0,38.6,31.5,30.0,0000.0,0006.58,0003.21,0002.38
2022-07-08 07:19:00,,0833.4,5.00,0.00,29.7,27.8,00.0,38.6,31.5,29.9,0000.0,0006.67,0003.23,0002.39
2022-07-08 07:20:00,,0833.4,5.00,0.00,29.7,27.9,00.0,38.5,31.5,29.9,0000.0,0006.71,0003.25,0002.41
2022-07-08 07:21:00,,0833.4,5.00,0.00,29.7,28.0,00.0,38.5,31.5,30.0,0000.0,0006.63,0003.25,0002.42
2022-07-08 07:22:00,,0833.4,5.01,0.00,29.7,28.1,00.0,38.5,31.5,29.9,0000.0,0007.51,0003.23,0002.42
2022-07-08 07:23:00,,0833.4,5.00,0.00,29.7,28.2,00.0,38.5,31.6,29.9,0000.0,0007.51,0003.20,0002.40
2022-07-08 07:24:00,,0833.4,5.01,0.00,29.7,28.3,00.0,38.5,31.6,29.9,0000.0,0007.14,0003.16,0002.36
2022-07-08 07:25:00,,0833.4,4.99,0.00,29.7,28.4,00.0,38.5,31.6,29.9,0000.0,0007.44,0003.13,0002.32
2022-07-08 07:26:00,,0833.5,5.00,0.00,29.7,28.4,00.0,38.6,31.7,29.9,0000.0,0007.56,0003.09,0002.29
2022-07-08 07:27:00,,0833.5,5.00,0.00,29.8,28.5,00.0,38.6,31.7,29.7,0000.0,0007.68,0003.04,0002.25
2022-07-08 07:28:00,,0833.4,5.00,0.00,29.8,28.5,00.0,38.6,31.7,29.7,0000.0,0007.66,0003.02,0002.21
2022-07-08 07:29:00,,0833.5,4.99,0.00,29.8,28.6,00.0,38.6,31.7,29.7,0000.0,0007.85,0003.04,0002.20
2022-07-08 07:30:00,,0833.4,5.00,0.00,29.8,28.6,00.0,38.6,31.7,29.7,0000.0,0007.83,0003.02,0002.16
2022-07-08 07:31:00,,0833.4,5.00,0.00,29.8,28.7,00.0,38.6,31.7,29.6,0000.0,0007.77,0002.96,0002.14
2022-07-08 07:32:00,,0833.4,4.99,0.00,29.9,28.7,00.0,38.6,31.8,29.5,0000.0,0008.09,0002.92,0002.11
2022-07-08 07:33:00,,0833.4,5.00,0.00,29.9,28.7,00.0,38.6,31.8,29.5,0000.0,0007.61,0002.87,0002.08
2022-07-08 07:34:00,,0833.4,4.99,0.00,29.9,28.8,00.0,38.7,31.9,29.5,0000.0,0007.31,0002.83,0002.07
2022-07-08 07:35:00,,0833.4,5.01,0.00,29.9,28.8,00.0,38.7,31.9,29.5,0000.0,0007.17,0002.77,0002.05
2022-07-08 07:36:00,,0833.4,5.00,0.00,29.9,28.9,00.0,38.7,31.9,29.4,0000.0,0006.35,0002.72,0002.04
2022-07-08 07:37:00,,0833.4,4.99,0.00,30.0,28.9,00.0,38.7,31.9,29.4,0000.0,0006.29,0002.70,0002.02
2022-07-08 07:38:00,,0833.4,5.00,0.00,30.0,28.9,00.0,38.7,31.9,29.4,0000.0,0005.70,0002.71,0002.02
2022-07-08 07:39:00,,0833.5,5.00,0.00,30.0,29.0,00.0,38.7,32.0,29.4,0000.0,0005.74,0002.74,0002.03
2022-07-08 07:40:00,,0833.4,4.99,0.00,30.0,29.0,00.0,38.8,32.0,29.3,0000.0,0005.33,0002.71,0002.02
2022-07-08 07:41:00,,0833.4,5.00,0.00,30.1,29.0,00.0,38.8,32.0,29.5,0000.0,0005.16,0002.65,0002.03
2022-07-08 07:42:00,,0833.4,5.00,0.00,30.1,29.0,00.0,38.8,32.0,29.8,0000.0,0005.21,0002.67,0002.05
2022-07-08 07:43:00,,0833.4,5.00,0.00,30.1,29.1,00.0,38.8,32.0,30.3,0000.0,0005.16,0002.78,0002.14
2022-07-08 07:44:00,,0833.5,5.00,0.00,30.1,28.7,00.0,38.8,32.0,31.2,0000.0,0004.96,0003.00,0002.24
2022-07-08 07:45:00,,0833.5,5.02,0.00,30.1,27.9,00.0,38.7,31.9,31.7,0000.0,0005.65,0003.21,0002.37
2022-07-08 07:46:00,,0833.5,4.99,0.00,30.1,27.5,00.0,38.7,31.8,31.8,0000.0,0006.74,0003.38,0002.54
2022-07-08 07:47:00,,0833.5,5.00,0.00,30.0,27.4,00.0,38.7,31.6,32.1,0000.0,0007.80,0003.50,0002.70
2022-07-08 07:48:00,,0833.6,5.00,0.00,29.9,27.5,00.0,38.7,31.6,32.3,0000.0,0007.97,0003.63,0002.87
2022-07-08 07:49:00,,0833.5,5.00,0.00,29.8,27.6,00.0,38.7,31.5,32.5,0000.0,0008.14,0003.74,0003.02
2022-07-08 07:50:00,,0833.5,5.00,0.00,29.8,27.8,00.0,38.6,31.5,32.4,0000.0,0008.35,0003.84,0003.13
2022-07-08 07:51:00,,0833.5,5.00,0.00,29.8,27.9,00.0,38.6,31.6,32.4,0000.0,0009.37,0003.99,0003.22
2022-07-08 07:52:00,,0833.5,5.00,0.00,29.8,28.0,00.0,38.6,31.6,32.3,0000.0,0009.86,0004.12,0003.31
2022-07-08 07:53:00,,0833.5,5.01,0.00,29.8,28.2,00.0,38.6,31.6,32.3,0000.0,0009.95,0004.19,0003.38
2022-07-08 07:54:00,,0833.5,5.01,0.00,29.8,28.3,00.0,38.6,31.7,32.3,0000.0,0009.86,0004.18,0003.40
2022-07-08 07:55:00,,0833.6,5.00,0.00,29.8,28.4,00.0,38.6,31.7,32.3,0000.0,0010.14,0004.15,0003.42
2022-07-08 07:56:00,,0833.5,4.99,0.00,29.8,28.4,00.0,38.6,31.7,32.2,0000.0,0010.32,0004.11,0003.44
2022-07-08 07:57:00,,0833.5,5.00,0.00,29.8,28.5,00.0,38.6,31.7,32.2,0000.0,0010.12,0004.04,0003.42
2022-07-08 07:58:00,,0833.6,5.00,0.00,29.8,28.6,00.0,38.6,31.8,32.1,0000.0,0009.98,0004.04,0003.40
2022-07-08 07:59:00,,0833.6,5.00,0.00,29.8,28.6,00.0,38.6,31.8,32.1,0000.0,0010.06,0004.05,0003.39
